FW7499 Weather Reports


time (UTC)temp
C
wind
direction
speed
KPH
gust
KPH
rain 1hr
cm
rain 24hr
cm
rain mn
cm
humidity
%
barometer
mb
20260502192505 18 319 6.4 12.9 0.00 0.00 0.00 31 1019.3
20260502192009 18 329 3.2 12.9 0.00 0.00 0.00 38 1019.3
20260502191509 18 301 6.4 12.9 0.00 0.00 0.00 34 1019.4
20260502191008 17 260 1.6 12.9 0.00 0.00 0.00 37 1019.4
20260502190505 17 306 4.8 12.9 0.00 0.00 0.00 38 1019.4
20260502190013 17 295 4.8 12.9 0.00 0.00 0.00 38 1019.6
20260502185504 17 187 0.0 11.3 0.00 0.00 0.00 33 1019.6
20260502185010 17 132 3.2 14.5 0.00 0.00 0.00 34 1019.7
20260502184510 17 319 3.2 14.5 0.00 0.00 0.00 38 1019.9
20260502184005 17 304 3.2 14.5 0.00 0.00 0.00 37 1019.9
20260502183509 17 300 1.6 14.5 0.00 0.00 0.00 32 1020.0
20260502183010 17 292 4.8 12.9 0.00 0.00 0.00 39 1020.2
20260502182507 17 355 1.6 12.9 0.00 0.00 0.00 38 1020.1
20260502182009 17 194 4.8 12.9 0.00 0.00 0.00 37 1020.3
20260502181511 16 245 3.2 12.9 0.00 0.00 0.00 37 1020.2
20260502181004 16 237 4.8 12.9 0.00 0.00 0.00 35 1020.4
20260502180507 16 311 4.8 11.3 0.00 0.00 0.00 42 1020.4
20260502170514 16 319 3.2 9.7 0.00 0.00 0.00 45 1021.2
20260502164006 15 248 3.2 12.9 0.00 0.00 0.00 41 1021.3
20260502163506 14 257 1.6 12.9 0.00 0.00 0.00 37 1021.4
20260502163027 15 71 3.2 12.9 0.00 0.00 0.00 37 1021.4
20260502162506 14 355 1.6 11.3 0.00 0.00 0.00 39 1021.4
20260502162010 13 241 3.2 12.9 0.00 0.00 0.00 38 1021.5
20260502161516 14 314 4.8 12.9 0.00 0.00 0.00 39 1021.5
20260502161017 15 308 4.8 12.9 0.00 0.00 0.00 42 1021.5
20260502160506 14 315 3.2 12.9 0.00 0.00 0.00 44 1021.6
20260502152010 12 285 0.0 9.7 0.00 0.00 0.00 48 1021.7
20260502151520 12 300 1.6 9.7 0.00 0.00 0.00 45 1021.7
20260502151007 11 267 3.2 6.4 0.00 0.00 0.00 46 1021.7
20260502150506 11 250 3.2 6.4 0.00 0.00 0.00 46 1021.6
20260502130506 5 332 0.0 0.0 0.00 0.00 0.00 73 1021.9
20260502123515 2 333 0.0 0.0 0.00 0.00 0.00 83 1021.8
20260502123037 1 333 0.0 0.0 0.00 0.00 0.00 83 1021.8
20260502122510 1 333 0.0 0.0 0.00 0.00 0.00 84 1021.7
20260502122017 1 333 0.0 0.0 0.00 0.00 0.00 85 1021.7
20260502121520 1 333 0.0 0.0 0.00 0.00 0.00 86 1021.7
20260502121010 1 332 0.0 0.0 0.00 0.00 0.00 85 1021.7
20260502120509 0 360 0.0 0.0 0.00 0.00 0.00 85 1021.6
20260502115508 0 333 0.0 0.0 0.00 0.00 0.00 85 1021.6
20260502115015 0 360 0.0 0.0 0.00 0.00 0.00 84 1021.6
20260502114513 0 360 0.0 0.0 0.00 0.00 0.00 85 1021.5
20260502114007 0 360 0.0 0.0 0.00 0.00 0.00 85 1021.5
20260502113503 0 360 0.0 0.0 0.00 0.00 0.00 85 1021.5
20260502113007 0 360 0.0 0.0 0.00 0.00 0.00 84 1021.6
20260502112503 0 360 0.0 0.0 0.00 0.00 0.00 85 1021.6
20260502112003 0 360 0.0 0.0 0.00 0.00 0.00 84 1021.5
20260502111507 0 360 0.0 0.0 0.00 0.00 0.00 84 1021.5
20260502111004 0 360 0.0 0.0 0.00 0.00 0.00 84 1021.4
20260502110506 1 360 0.0 0.0 0.00 0.00 0.00 83 1021.4
20260502110017 1 360 0.0 0.0 0.00 0.00 0.00 84 1021.4
20260502105506 1 360 0.0 0.0 0.00 0.00 0.00 84 1021.3
20260502105003 1 360 0.0 0.0 0.00 0.00 0.00 84 1021.3
20260502104521 1 360 0.0 0.0 0.00 0.00 0.00 84 1021.3
20260502104006 1 360 0.0 0.0 0.00 0.00 0.00 84 1021.3
20260502103502 1 360 0.0 0.0 0.00 0.00 0.00 83 1021.3
20260502103022 1 360 0.0 0.0 0.00 0.00 0.00 82 1021.3
20260502102507 1 360 0.0 0.0 0.00 0.00 0.00 83 1021.3
20260502102010 1 360 0.0 0.0 0.00 0.00 0.00 83 1021.2
20260502101507 1 360 0.0 0.0 0.00 0.00 0.00 83 1021.2
20260502101005 1 360 0.0 0.0 0.00 0.00 0.00 83 1021.1
20260502100505 1 360 0.0 0.0 0.00 0.00 0.00 83 1021.2
20260502091523 1 333 0.0 0.0 0.00 0.00 0.00 79 1021.0
20260502091006 2 333 0.0 0.0 0.00 0.00 0.00 78 1020.9
20260502090505 2 333 0.0 0.0 0.00 0.00 0.00 78 1020.9
20260502071524 2 333 0.0 0.0 0.00 0.00 0.00 78 1021.1
20260502071011 2 333 0.0 0.0 0.00 0.00 0.00 78 1021.1
20260502070508 2 333 0.0 0.0 0.00 0.00 0.00 77 1021.1
20260502070022 3 333 0.0 0.0 0.00 0.00 0.00 76 1021.1
20260502065510 3 333 0.0 0.0 0.00 0.00 0.00 75 1021.0
20260502065012 3 333 0.0 0.0 0.00 0.00 0.00 75 1021.0
20260502064517 3 333 0.0 0.0 0.00 0.00 0.00 74 1021.0
20260502064005 3 333 0.0 0.0 0.00 0.00 0.00 74 1021.1
20260502063509 3 333 0.0 0.0 0.00 0.00 0.00 74 1021.2
20260502063014 3 333 0.0 0.0 0.00 0.00 0.00 74 1021.1
20260502062507 3 333 0.0 0.0 0.00 0.00 0.00 73 1021.1
20260502062008 3 333 0.0 0.0 0.00 0.00 0.00 72 1021.0
20260502061518 3 333 0.0 0.0 0.00 0.00 0.00 71 1021.0
20260502061008 3 333 0.0 0.0 0.00 0.00 0.00 71 1021.0
20260502060508 3 333 0.0 0.0 0.00 0.00 0.00 71 1020.9
20260502060016 3 333 0.0 0.0 0.00 0.00 0.00 71 1020.9
20260502055508 3 333 0.0 0.0 0.00 0.00 0.00 70 1020.9
20260502055008 3 333 0.0 0.0 0.00 0.00 0.00 70 1020.9
20260502054526 3 333 0.0 0.0 0.00 0.00 0.00 69 1020.8
20260502054007 4 333 0.0 0.0 0.00 0.00 0.00 69 1020.7
20260502053507 4 333 0.0 0.0 0.00 0.00 0.00 68 1020.7
20260502053023 4 333 0.0 0.0 0.00 0.00 0.00 69 1020.8
20260502052510 4 333 0.0 0.0 0.00 0.00 0.00 69 1020.8
20260502052006 4 333 0.0 0.0 0.00 0.00 0.00 68 1020.8
20260502051523 4 333 0.0 0.0 0.00 0.00 0.00 67 1020.7
20260502051006 4 333 0.0 0.0 0.00 0.00 0.00 66 1020.8
20260502050507 5 333 0.0 0.0 0.00 0.00 0.00 66 1020.8
20260502050030 5 333 0.0 0.0 0.00 0.00 0.00 65 1020.7
20260502045507 5 333 0.0 0.0 0.00 0.00 0.00 65 1020.7
20260502045008 5 333 0.0 0.0 0.00 0.00 0.00 63 1020.7
20260502044522 5 333 0.0 0.0 0.00 0.00 0.00 63 1020.7
20260502044006 5 333 0.0 0.0 0.00 0.00 0.00 59 1020.6
20260502043507 5 333 0.0 0.0 0.00 0.00 0.00 59 1020.6
20260502043026 5 333 0.0 0.0 0.00 0.00 0.00 58 1020.7
20260502042510 6 333 0.0 0.0 0.00 0.00 0.00 58 1020.7
20260502042012 5 333 0.0 0.0 0.00 0.00 0.00 59 1020.8
20260502041526 5 333 0.0 0.0 0.00 0.00 0.00 61 1020.7
20260502041011 6 333 0.0 0.0 0.00 0.00 0.00 61 1020.6
20260502040505 6 333 0.0 0.0 0.00 0.00 0.00 59 1020.6
20260502040018 6 333 0.0 0.0 0.00 0.00 0.00 58 1020.5
20260502035503 6 333 0.0 0.0 0.00 0.00 0.00 59 1020.5
20260502035006 6 333 0.0 0.0 0.00 0.00 0.00 60 1020.4
20260502034508 6 333 0.0 1.6 0.00 0.00 0.00 58 1020.5
20260502034005 6 333 0.0 1.6 0.00 0.00 0.00 56 1020.5
20260502033502 6 333 0.0 0.0 0.00 0.00 0.00 56 1020.5
20260502033006 6 333 0.0 0.0 0.00 0.00 0.00 57 1020.5
20260502032501 6 333 0.0 0.0 0.00 0.00 0.00 56 1020.5
20260502032003 6 333 0.0 0.0 0.00 0.00 0.00 57 1020.5
20260502031503 6 333 0.0 0.0 0.00 0.00 0.00 57 1020.5
20260502031003 6 333 0.0 0.0 0.00 0.00 0.00 55 1020.5
20260502030504 6 333 0.0 0.0 0.00 0.00 0.00 58 1020.4
20260502030017 7 333 0.0 0.0 0.00 0.00 0.00 54 1020.4
20260502025503 7 333 0.0 0.0 0.00 0.00 0.00 53 1020.3
20260502025002 7 333 0.0 0.0 0.00 0.00 0.00 54 1020.2
20260502024504 7 333 0.0 0.0 0.00 0.00 0.00 55 1020.1
20260502024003 7 333 0.0 0.0 0.00 0.00 0.00 53 1020.0
20260502023502 7 333 0.0 0.0 0.00 0.00 0.00 51 1020.0
20260502023004 8 333 0.0 0.0 0.00 0.00 0.00 48 1019.9
20260502022504 8 333 0.0 3.2 0.00 0.00 0.00 47 1019.9
20260502022002 8 333 0.0 3.2 0.00 0.00 0.00 48 1019.9
20260502021503 8 333 0.0 1.6 0.00 0.00 0.00 46 1019.8
20260502021002 8 333 0.0 3.2 0.00 0.00 0.00 46 1019.7
20260502020503 8 333 0.0 3.2 0.00 0.00 0.00 47 1019.7
20260502020003 8 333 0.0 3.2 0.00 0.00 0.00 45 1019.7
20260502015503 9 333 0.0 6.4 0.00 0.00 0.00 45 1019.6
20260502015003 9 333 0.0 6.4 0.00 0.00 0.00 44 1019.5
20260502014503 9 355 0.0 3.2 0.00 0.00 0.00 46 1019.3
20260502014002 9 355 0.0 3.2 0.00 0.00 0.00 46 1019.3
20260502013502 9 355 0.0 3.2 0.00 0.00 0.00 44 1019.3
20260502013013 10 355 0.0 3.2 0.00 0.00 0.00 45 1019.2
20260502012508 10 355 0.0 4.8 0.00 0.00 0.00 43 1019.2
20260502012004 10 34 0.0 4.8 0.00 0.00 0.00 43 1019.1
20260502011507 10 319 0.0 3.2 0.00 0.00 0.00 43 1019.1
20260502011004 10 319 0.0 4.8 0.00 0.00 0.00 42 1019.1
20260502010504 11 319 0.0 12.9 0.00 0.00 0.00 40 1019.0
20260502010006 11 321 3.2 12.9 0.00 0.00 0.00 39 1018.9
20260502005503 11 355 4.8 12.9 0.00 0.00 0.00 38 1018.8
20260502005003 11 37 1.6 9.7 0.00 0.00 0.00 39 1018.8
20260502004515 11 352 4.8 14.5 0.00 0.00 0.00 38 1018.6
20260502004005 11 13 1.6 14.5 0.00 0.00 0.00 40 1018.6
20260502003505 11 340 3.2 14.5 0.00 0.00 0.00 40 1018.5
20260502003005 11 360 4.8 14.5 0.00 0.00 0.00 37 1018.5
20260502002502 12 345 4.8 12.9 0.00 0.00 0.00 38 1018.5
20260502002006 12 301 3.2 8.0 0.00 0.00 0.00 39 1018.4
20260502001504 12 329 3.2 14.5 0.00 0.00 0.00 40 1018.4
20260502001004 12 301 6.4 16.1 0.00 0.00 0.00 37 1018.4
20260502000503 12 341 6.4 16.1 0.00 0.00 0.00 37 1018.4
20260502000006 12 347 4.8 17.7 0.00 0.00 0.00 38 1018.4
20260501235506 12 333 6.4 19.3 0.00 0.00 0.00 36 1018.5
20260501235002 12 336 6.4 19.3 0.00 0.00 0.00 35 1018.4
20260501234508 12 322 4.8 14.5 0.00 0.00 0.00 37 1018.5
20260501234005 12 319 3.2 19.3 0.00 0.00 0.00 37 1018.5
20260501233503 12 333 8.0 22.5 0.00 0.00 0.00 37 1018.5
20260501233012 13 346 6.4 22.5 0.00 0.00 0.00 36 1018.4
20260501232506 13 315 9.7 20.9 0.00 0.00 0.00 34 1018.5
20260501232003 13 360 3.2 20.9 0.00 0.00 0.00 36 1018.4
20260501231517 13 320 9.7 19.3 0.00 0.00 0.00 36 1018.4
20260501231005 13 313 8.0 16.1 0.00 0.00 0.00 36 1018.4
20260501230503 13 5 6.4 16.1 0.00 0.00 0.00 35 1018.4
20260501230007 14 312 3.2 9.7 0.00 0.00 0.00 35 1018.3
20260501225503 13 332 3.2 20.9 0.00 0.00 0.00 37 1018.4
20260501225002 14 326 8.0 20.9 0.00 0.00 0.00 35 1018.4
20260501224505 14 341 8.0 19.3 0.00 0.00 0.00 36 1018.4
20260501224005 14 331 6.4 14.5 0.00 0.00 0.00 34 1018.4
20260501223503 14 326 1.6 17.7 0.00 0.00 0.00 34 1018.3
20260501223010 14 324 4.8 17.7 0.00 0.00 0.00 36 1018.4
20260501222504 14 15 4.8 16.1 0.00 0.00 0.00 35 1018.3
20260501222006 14 348 4.8 12.9 0.00 0.00 0.00 36 1018.3
20260501221504 14 348 4.8 19.3 0.00 0.00 0.00 36 1018.2
20260501221003 14 332 8.0 19.3 0.00 0.00 0.00 34 1018.2
20260501220503 15 332 8.0 19.3 0.00 0.00 0.00 34 1018.2
20260501220018 15 324 4.8 16.1 0.00 0.00 0.00 37 1018.1
20260501215507 15 299 8.0 14.5 0.00 0.00 0.00 36 1018.2
20260501215006 15 333 3.2 22.5 0.00 0.00 0.00 36 1018.3
20260501214518 14 355 9.7 22.5 0.00 0.00 0.00 34 1018.3
20260501214009 14 333 11.3 22.5 0.00 0.00 0.00 36 1018.2
20260501213502 15 325 6.4 19.3 0.00 0.00 0.00 35 1018.3
20260501213022 15 329 8.0 17.7 0.00 0.00 0.00 37 1018.2
20260501212504 15 316 6.4 14.5 0.00 0.00 0.00 35 1018.3
20260501212004 15 22 3.2 16.1 0.00 0.00 0.00 36 1018.4
20260501211508 15 5 6.4 20.9 0.00 0.00 0.00 36 1018.5
20260501211003 15 355 3.2 20.9 0.00 0.00 0.00 38 1018.3
20260501210505 15 306 6.4 20.9 0.00 0.00 0.00 36 1018.4
20260501210015 15 315 8.0 20.9 0.00 0.00 0.00 35 1018.4
20260501205505 15 338 6.4 17.7 0.00 0.00 0.00 37 1018.4
20260501205007 16 314 3.2 11.3 0.00 0.00 0.00 40 1018.5
20260501204508 16 339 3.2 17.7 0.00 0.00 0.00 37 1018.6
20260501204002 16 350 9.7 17.7 0.00 0.00 0.00 40 1018.6
20260501203506 15 5 4.8 16.1 0.00 0.00 0.00 40 1018.6
20260501203008 15 329 3.2 16.1 0.00 0.00 0.00 42 1018.5
20260501202505 15 360 6.4 20.9 0.00 0.00 0.00 38 1018.8
20260501202006 15 360 6.4 20.9 0.00 0.00 0.00 40 1018.8
20260501201517 15 5 3.2 17.7 0.00 0.00 0.00 41 1018.8
20260501201006 15 311 8.0 17.7 0.00 0.00 0.00 44 1018.8
20260501200502 15 355 3.2 17.7 0.00 0.00 0.00 42 1018.9
20260501200019 15 277 4.8 17.7 0.00 0.00 0.00 41 1018.8
20260501195508 15 317 8.0 20.9 0.00 0.00 0.00 40 1019.0
20260501195004 15 321 3.2 20.9 0.00 0.00 0.00 41 1018.9
20260501194518 15 322 11.3 19.3 0.00 0.00 0.00 42 1019.0
20260501194010 14 350 4.8 17.7 0.00 0.00 0.00 44 1018.9
20260501193510 15 309 6.4 17.7 0.00 0.00 0.00 45 1018.9
20260501193009 14 326 6.4 16.1 0.00 0.00 0.00 43 1018.9